Tracking 27111 objects as of 28-Mar-2023
HD Live streaming from Space Station
objects crossing your sky now

THOR BURNER 2 R/B

Track THOR BURNER 2 R/B now!
10-day predictions


NORAD ID: 7817
Int'l Code: 1975-043B
Perigee: 797.2 km
Apogee: 872.8 km
Inclination: 98.8 °
Period: 101.5 minutes
Semi major axis: 7205 km
RCS: Unknown
Launch date: May 24, 1975
Source: United States (US)
Launch site: AIR FORCE WESTERN TEST RANGE (AFWTR)

Note: This is a ROCKET BODY
Your satellite tracking list
Your tracking list is empty




NASA's NSSDC Master Catalog

Two Line Element Set (TLE):
1 07817U 75043B   23086.80372599  .00000215  00000-0  12224-3 0  9996
2 07817  98.7855 293.0449 0052468 258.5667 100.9613 14.19258956196356
Source of the keplerian elements: AFSPC